Погода в Лойко

Мьянма     19°40′52″N   97°12′49″E
темп.,
°C
ветер,
м/с
пор.,
м/с
влажн.,
%
обл.,
%
осадки,
мм/ч
давл.,
гПа
погр.,
м
22 января, сб
сб2200:30+12зсз116191 0.0 101311
03:30+10з117297 0.0 101111
06:30+9з11752 0.0 101311
09:30+19юв12400 0.0 1013573
12:30+26юз36160 0.0 10092816
15:30+25зюз461923 0.0 10062485
18:30+16з374115 0.0 1009116
21:30+13з22525 0.0 101217
23 января, вс
вс2300:30+12зсз22555 0.0 101216
03:30+11зсз215680 0.0 101114
06:30+10зсз115880 0.0 101311
09:30+20вюв11355 0.0 1014517
12:30+25юв2525100 0.0 10102426
15:30+26зюз342277 0.0 10072609
18:30+17з36432 0.0 101099
21:30+13зсз22550 0.0 101321
24 января, пн
пн2400:30+12зсз22590 0.0 101319
03:30+11зсз22624 0.0 101218
06:30+10сз22660 0.0 101422
09:30+21св11385 0.0 1014470
12:30+26в23250 0.0 10112154
15:30+26вюв242327 0.0 10072916
18:30+17юз22434 0.0 101017
21:30+15з22510 0.0 101228
25 января, вт
вт2500:30+13зсз22550 0.0 101319
03:30+12зсз22580 0.0 101218
06:30+11зсз11620 0.0 101311
09:30+21в11360 0.0 1014442
12:30+27вюв22240 0.0 10112086
15:30+27вюв24226 0.0 10072821
18:30+18юз22431 0.0 101022
21:30+15з22530 0.0 101225
26 января, ср
ср2600:30+14зсз22570 0.0 101219
03:30+12зсз11603 0.0 101214
06:30+11зсз11630 0.0 101310
09:30+22в10370 0.0 1014461
12:30+27юв23240 0.0 10102154
15:30+28юв362225 0.0 10063021
18:30+19зюз23420 0.0 100944
21:30+15з22525 0.0 101217